This is the latest recevied weather packets stored in our database for station/object N7ZEF. If no packets are shown the sender has not sent any weather packets the latest 10 day(s).
| Time | Temp. | Humidity | Pressure | Rain* | Wind** | Luminosity | Snow |
|---|---|---|---|---|---|---|---|
| 1777667042 | 13.33° C | 25% | 1023.9 hPa | 0 mm | - | - | - |
| 1777666441 | 12.78° C | 23% | 1024 hPa | 0 mm | - | - | - |
| 1777665839 | 12.22° C | 25% | 1024.1 hPa | 0 mm | - | - | - |
| 1777665238 | 12.22° C | 24% | 1024.3 hPa | 0 mm | - | - | - |
| 1777664636 | 11.67° C | 28% | 1024.1 hPa | 0 mm | - | - | - |
| 1777664035 | 11.67° C | 28% | 1024.4 hPa | 0 mm | - | - | - |
| 1777663434 | 11.67° C | 30% | 1024.5 hPa | 0 mm | - | - | - |
| 1777662832 | 11.67° C | 29% | 1024.5 hPa | 0 mm | - | - | - |
| 1777662232 | 11.67° C | 29% | 1024.5 hPa | 0 mm | - | - | - |
| 1777661630 | 11.67° C | 30% | 1024.8 hPa | 0 mm | - | - | - |
| 1777661028 | 11.11° C | 32% | 1024.8 hPa | 0 mm | - | - | - |
| 1777660427 | 11.67° C | 33% | 1024.9 hPa | 0 mm | - | - | - |
| 1777659826 | 10.56° C | 34% | 1025 hPa | 0 mm | - | - | - |
| 1777659224 | 10.56° C | 36% | 1025.3 hPa | 0 mm | - | - | - |
| 1777658623 | 10.56° C | 36% | 1025.3 hPa | 0 mm | - | - | - |
| 1777658021 | 10.56° C | 36% | 1025.4 hPa | 0 mm | - | - | - |
| 1777657420 | 10° C | 38% | 1025.5 hPa | 0 mm | - | - | - |
| 1777656819 | 10° C | 36% | 1025.5 hPa | 0 mm | - | - | - |
| 1777656217 | 9.44° C | 37% | 1025.5 hPa | 0 mm | - | - | - |
| 1777655616 | 9.44° C | 37% | 1025.6 hPa | 0 mm | - | - | - |
| 1777655015 | 8.89° C | 39% | 1025.6 hPa | 0 mm | - | - | - |
| 1777654413 | 8.89° C | 38% | 1025.6 hPa | 0 mm | - | - | - |
| 1777653812 | 8.89° C | 40% | 1025.6 hPa | 0 mm | - | - | - |
| 1777653211 | 8.89° C | 38% | 1025.6 hPa | 0 mm | - | - | - |
| 1777652609 | 8.33° C | 39% | 1025.6 hPa | 0 mm | - | - | - |
* Rain latest hour (hover to see other rain measurements)
** Current wind speed in m/s (hover to see current wind gust speed)